Location: ????
(33.1659°N, 35.6604°E)
Time: 06:39:18
(UTC+00:00)

Okean 1-7 Rocket - Pass Details

Date: 20 September 2019
Orbit: 617 x 649 km, 82.5° (Epoch: 18 October)

Event Time Altitude Azimuth Distance (km) Brightness Sun altitude
Rises 17:07:14 0° 359° (N) 2,914 7.2 -19.4°
Reaches altitude 10° 17:09:31 10° 4° (N) 2,008 6.3 -19.9°
Maximum altitude 17:13:52 53° 81° (E) 779 3.7 -20.7°
Enters shadow 17:13:58 53° 88° (E) 780 3.6 -20.8°
